Voltar ao catálogo

SL-12 R/B(2)

LostGEO
NORAD 28256·ROCKET BODY·🇷🇺 Russia

Lançado Mar 27, 2004 de Baikonur Cosmodrome

Loading…

TLE

EnvelhecendoSource: Space-Track

Época: Aug 5, 2026, 14:57 UTC

1 28256U 04010F   26217.62305138  .00000099  00000-0  00000+0 0  9991
2 28256  13.7771  20.5523 0026029  13.8631 344.1882  1.00121002 81151

Acompanhe SL-12 R/B(2) em tempo real com AllMySat

Download on the App Store